Tracking 21076 objects as of 9-Aug-2020
HD Live streaming from Space Station
objects crossing your sky now
Track the most recent launched group of Starlink satellites

COSMOS 339

Track COSMOS 339 now!
10-day predictions
COSMOS 339 is classified as:


NORAD ID: 4386
Int'l Code: 1970-036D
Perigee: 1,452.2 km
Apogee: 1,475.8 km
Inclination: 74.0 °
Period: 115.0 minutes
Semi major axis: 7834 km
RCS: 0.7395 m2 (medium)
Launch date: April 25, 1970
Source: Commonwealth of Independent States (former USSR) (CIS)
Launch site: PLESETSK MISSILE AND SPACE COMPLEX (PKMTR)
aabbcc
Your satellite tracking list
Your tracking list is empty




NASA's NSSDC Master Catalog

Two Line Element Set (TLE):
1  4386U 70036D   20222.49130000 -.00000010  00000-0  37112-4 0  9992
2  4386  74.0288 111.0893 0015029 138.2398  34.4430 12.51832158298391
Source of the keplerian elements: AFSPC